User: anonymous   Login
Location: Unspecified
(0.0000°N, 0.0000°E)
Time: 06:52:29
(UTC+00:00)
Language:

STARLINK-36183 - Orbit

View from above orbital plane
View from above orbital plane
View from above satellite
View from above satellite

Ground track
Ground track

The orbit is defined by the following mean orbital elements,

1 67173U          26145.52431485 +.00000000 +00000-0 +22467-2 0 00000
2 67173  42.9997 237.0023 0001196 263.0490  97.0226 15.27650906    01
Epoch (UTC): 25 May 2026 12:35:00
Eccentricity: 0.0001196
inclination: 42.9997°
perigee height: 482 km
apogee height: 484 km
right ascension of ascending node: 237.0023°
argument of perigee: 263.0490°
revolutions per day: 15.27650906
mean anomaly at epoch: 97.0226°

The dashed part of the orbit path shows where the satellite is in the earth's shadow,  

DLR